Theta_e
318 319 320 321 321 320 321 321 321 320 320 319 319 318 318 317 317 316 315 315 314 313 311 309 308 307 307 306 306 306 306 306 306 306 306 305 305 305 305 304 304 304 305 305 305 305 305 305 305 305 305 305 305 305 305 305 305 305 305 304 304 304 304 304 305 305 305 305 305 304 304 305 304 304 304 304 303 303 303 302 302 301 300 300 299 298
319 320 321 321 320 320 320 321 321 320 320 319 319 318 318 317 316 316 315 315 313 312 310 308 307 307 306 306 306 306 306 306 306 306 306 305 305 304 304 304 304 303 304 304 304 304 305 305 305 305 305 305 305 305 304 304 304 304 304 304 304 304 304 304 304 304 304 304 304 304 304 304 304 304 303 303 303 303 302 302 301 300 299 298 297 296
320 321 320 320 320 320 320 321 320 320 320 319 319 318 317 317 316 315 315 314 313 311 309 307 307 306 306 306 306 306 306 306 306 306 305 305 304 304 304 303 303 302 302 302 303 303 304 304 304 304 304 304 304 304 303 303 303 303 303 303 303 303 303 303 303 303 303 303 303 303 303 303 303 303 303 303 302 302 301 300 299 298 297 296 295 294
321 321 320 320 320 320 320 320 320 320 319 319 318 317 317 316 316 315 315 313 311 310 308 307 306 306 306 306 306 306 306 306 306 305 305 304 304 303 303 302 302 301 301 301 301 302 302 303 303 303 303 303 303 303 303 303 303 303 303 303 303 303 303 303 303 303 303 303 303 303 303 303 303 302 302 301 301 300 299 297 296 295 294 293 293 292
321 321 320 320 321 321 320 320 320 319 318 318 317 316 316 316 315 315 314 312 310 309 307 307 306 306 306 306 306 306 306 306 305 305 304 304 303 303 302 302 301 301 300 300 300 301 301 301 302 302 302 302 302 302 302 302 302 302 302 302 302 302 302 302 302 302 302 302 302 302 302 302 302 301 300 299 298 297 296 294 294 293 292 291 291 291
321 320 320 320 321 321 320 320 319 318 317 317 316 316 315 315 314 314 312 311 309 308 307 307 306 306 306 306 306 306 305 305 305 304 304 303 303 302 301 301 300 300 300 300 300 300 300 300 301 301 301 301 301 301 301 301 302 302 302 302 302 302 302 302 302 302 302 302 302 301 301 300 299 298 297 295 294 294 293 292 291 291 290 290 290 290
320 320 320 320 320 319 319 318 318 317 317 316 316 315 315 314 313 312 311 309 308 307 307 306 306 306 306 306 305 305 305 305 304 304 303 303 302 301 300 300 299 299 299 299 299 300 300 300 300 300 300 300 300 301 301 301 301 301 301 301 301 301 301 301 301 301 301 300 300 299 298 297 296 294 293 292 292 291 290 290 290 289 289 289 289 289
321 320 320 319 319 318 318 317 317 317 316 316 315 315 314 313 312 310 309 308 307 307 306 306 306 305 305 305 305 305 305 304 304 304 303 302 301 300 299 298 298 298 298 298 299 299 299 300 300 300 300 300 300 300 300 300 300 300 300 300 300 300 300 299 299 299 298 297 296 295 294 293 292 291 290 290 290 289 289 289 289 289 289 288 288 288
320 320 319 319 318 317 317 317 317 317 316 315 314 313 312 311 310 309 308 307 307 306 306 306 305 305 305 305 305 305 304 304 304 303 302 301 300 299 298 297 296 296 297 297 297 298 298 298 299 299 298 298 298 298 298 298 298 298 298 298 298 297 297 296 296 295 294 293 293 292 291 290 290 289 289 289 289 289 289 288 288 288 288 288 288 288
319 319 318 318 317 317 317 317 317 316 315 314 313 312 311 310 309 308 307 307 306 306 305 305 305 305 305 304 304 304 304 303 303 302 301 300 298 297 296 295 295 295 295 295 296 296 296 296 296 296 296 296 296 296 296 296 295 295 295 294 294 294 293 293 292 292 291 291 290 290 289 289 289 289 289 289 288 288 288 288 288 288 288 288 288 288
318 318 318 318 317 317 316 316 315 315 314 313 311 310 309 308 308 307 307 306 306 305 305 305 305 305 305 304 304 303 303 303 302 301 300 298 297 295 294 294 293 293 293 293 293 294 294 294 294 294 294 293 293 293 293 293 292 292 292 291 291 291 290 290 290 290 289 289 289 289 289 289 289 289 289 288 288 288 288 288 288 288 288 287 287 287
318 318 317 317 317 317 316 315 314 313 312 311 310 309 308 308 307 307 306 306 305 305 305 305 304 304 304 304 303 303 302 302 300 299 297 296 295 294 293 292 292 292 292 292 292 292 292 291 291 291 291 291 291 291 291 290 290 290 290 290 289 289 289 289 289 289 289 289 289 289 289 289 289 288 288 288 288 288 288 288 288 288 287 287 287 287
317 317 317 317 317 316 315 314 313 312 311 310 309 309 308 307 307 306 305 305 305 304 304 304 304 304 304 303 303 302 301 300 299 297 295 294 293 292 292 291 291 291 290 290 290 290 290 290 290 290 289 289 289 289 289 289 289 289 289 289 289 289 289 289 289 289 289 289 289 289 288 288 288 288 288 288 288 288 288 288 288 287 287 287 287 287
317 317 317 316 315 315 313 312 311 310 310 309 308 308 307 306 306 305 305 304 304 304 304 304 304 304 303 303 302 301 300 298 296 295 293 293 292 291 291 290 290 290 289 289 289 289 289 289 289 289 289 289 289 289 289 289 289 289 289 289 289 289 289 289 289 289 289 288 288 288 288 288 288 288 288 288 288 288 288 287 287 287 287 287 287 287
316 316 315 315 314 313 312 311 310 309 308 308 307 306 306 306 305 305 304 304 304 303 303 303 303 303 303 302 301 299 297 295 294 293 292 292 291 291 290 290 290 289 289 289 289 289 289 289 289 289 289 289 289 289 289 289 289 289 288 288 288 288 288 288 288 288 288 288 288 288 288 288 288 288 288 288 288 288 288 288 288 288 287 287 287 287
315 314 313 312 311 311 310 309 308 308 307 307 306 306 306 305 305 304 304 304 303 303 303 303 303 302 301 300 298 296 295 293 293 292 292 291 291 290 290 290 289 289 289 289 289 289 289 289 289 289 289 289 288 288 288 288 288 288 288 288 288 288 288 288 288 288 288 288 288 288 288 288 288 288 288 288 288 288 288 288 288 288 288 288 288 288
313 312 311 310 309 309 308 308 307 307 307 306 306 305 305 305 304 304 303 303 303 303 303 303 302 300 299 297 296 294 293 292 292 291 291 290 290 290 290 290 290 289 289 289 289 289 289 289 289 288 288 288 288 288 288 288 288 288 288 288 288 288 288 288 288 288 288 288 288 288 288 288 288 288 288 288 288 288 288 288 288 288 288 288 288 288
310 309 309 308 308 308 307 307 307 306 306 306 305 305 304 304 304 303 303 303 303 302 302 301 300 298 297 295 294 292 292 291 291 291 290 290 290 289 289 289 289 289 289 289 289 289 288 288 288 288 288 288 288 288 288 288 288 288 288 288 288 288 288 288 288 288 288 288 288 288 288 288 288 288 288 288 289 289 289 288 288 288 288 288 288 289
308 308 308 307 307 307 306 306 306 306 305 305 305 304 304 303 303 303 303 303 302 301 300 299 297 296 294 293 292 291 291 290 290 290 289 289 289 289 289 289 289 289 289 289 288 288 288 288 288 287 287 288 288 288 288 288 288 288 288 288 288 288 288 288 288 288 288 288 288 288 288 288 288 289 289 289 289 289 289 289 289 289 289 289 289 289
307 307 306 306 306 306 306 305 305 305 304 304 304 303 303 303 303 303 302 301 300 299 298 296 295 293 292 291 291 290 290 290 289 289 289 289 288 289 289 289 289 289 288 288 288 288 288 288 288 288 288 288 288 288 288 288 288 288 288 288 288 288 288 288 288 288 288 288 288 288 288 288 289 289 289 289 289 289 289 289 289 289 289 289 289 290
306 306 306 305 305 305 305 305 304 304 304 303 303 303 303 302 302 301 300 299 297 296 294 293 292 291 291 290 290 290 290 289 289 289 289 288 288 288 288 288 288 288 288 288 288 287 287 287 288 288 288 288 288 288 288 288 288 288 288 288 288 288 288 288 288 288 288 288 288 288 289 289 289 289 289 289 289 289 289 289 289 289 289 290 290 290
305 305 305 304 304 304 304 304 304 303 303 303 303 302 301 300 299 298 296 295 294 293 292 291 291 290 290 289 289 289 289 289 289 289 288 288 288 288 288 288 288 288 288 287 287 287 287 287 288 288 288 288 288 288 288 288 288 288 288 288 288 288 288 288 288 288 288 288 288 289 289 289 289 290 290 290 290 290 290 290 290 290 290 290 290 290
304 304 304 304 304 304 304 303 303 303 302 302 300 299 297 296 295 294 293 292 291 291 290 290 290 289 289 289 288 288 288 288 288 288 288 288 288 288 288 288 288 288 287 287 287 287 287 287 287 288 288 288 288 288 288 288 288 288 288 288 288 288 288 288 288 288 288 288 289 289 289 289 290 290 290 290 290 290 290 290 290 290 290 290 290 290
304 304 304 304 304 304 303 303 302 301 300 298 296 295 294 293 292 291 291 290 290 290 289 289 289 289 289 288 288 288 288 288 288 288 288 288 288 287 288 288 288 288 287 287 287 287 287 287 287 288 288 287 287 288 288 288 288 288 288 288 288 288 288 288 288 288 288 289 289 289 289 290 290 290 290 290 290 290 290 290 290 290 290 290 290 290
304 304 304 303 303 302 301 300 298 297 295 294 293 292 291 290 290 290 290 289 289 289 289 289 288 288 288 288 288 288 288 288 288 288 288 288 287 287 287 288 288 288 287 287 287 287 287 287 287 287 287 288 288 288 288 288 288 288 288 288 288 288 288 288 288 288 288 289 289 289 290 290 290 290 290 290 290 290 290 290 290 290 290 290 290 290
303 302 302 301 299 298 297 295 294 293 292 291 290 290 289 289 289 289 289 289 289 289 289 288 288 288 288 288 288 288 288 288 288 288 288 288 287 287 288 288 288 288 287 287 287 287 287 287 287 287 288 288 288 288 288 288 288 289 289 289 289 289 288 288 288 288 289 289 289 289 290 290 290 290 290 290 290 290 290 290 290 290 290 290 290 290
299 298 297 296 295 294 293 292 291 291 290 290 289 289 289 289 289 289 289 289 289 288 288 288 288 288 288 287 287 287 288 288 288 288 287 287 287 288 288 288 288 287 287 287 287 287 287 287 287 287 288 288 288 288 288 288 289 289 289 289 289 289 289 289 289 289 289 289 289 290 290 290 290 290 290 290 290 290 290 290 290 290 290 290 290 290
295 293 292 292 291 291 290 290 290 290 289 289 289 289 289 289 289 289 289 289 288 288 288 288 288 288 288 287 287 287 288 288 288 288 287 288 288 288 288 288 288 287 287 287 287 287 287 287 287 287 288 288 288 288 288 289 289 289 289 289 289 289 289 289 289 289 289 289 289 290 290 290 290 290 290 290 290 290 290 290 290 290 290 290 290 290
291 291 290 290 290 290 290 289 289 289 289 289 289 289 289 289 289 289 289 288 288 288 288 288 288 288 288 287 287 288 288 287 288 288 288 288 288 288 287 287 287 287 287 287 287 287 287 287 287 287 288 288 288 288 289 289 289 289 289 289 289 289 289 289 289 289 289 289 289 289 290 290 290 290 290 290 290 290 290 290 290 290 290 290 290 290
290 290 290 290 290 289 289 289 289 289 289 289 289 289 289 288 288 288 288 288 288 288 288 288 288 288 288 288 288 288 288 288 288 288 288 288 288 288 287 287 287 287 287 287 287 287 287 287 288 288 288 288 288 289 289 289 289 289 289 289 289 289 289 289 289 289 289 289 289 289 290 290 290 290 290 290 290 290 290 290 290 290 290 290 290 290
289 289 289 289 289 289 289 289 289 289 289 289 289 288 288 288 288 288 288 288 288 288 288 288 288 288 288 288 288 288 287 288 288 288 288 288 288 287 287 287 287 287 287 287 287 287 287 287 288 288 288 288 288 289 289 289 289 289 289 289 289 289 289 289 289 289 289 289 289 289 290 290 290 290 290 290 290 290 290 290 290 290 290 290 290 290
289 289 289 289 289 289 289 289 289 289 289 289 289 288 288 288 288 288 288 288 288 288 288 288 288 288 288 288 288 287 287 287 288 288 288 288 288 288 288 288 287 287 287 287 287 287 287 287 288 288 288 288 288 289 289 289 289 289 289 289 289 289 289 289 289 289 289 289 290 290 290 290 290 290 290 290 290 290 290 290 290 290 290 290 290 290
289 289 289 289 289 289 289 289 289 288 288 288 288 288 288 288 288 288 288 288 288 288 288 288 288 288 288 288 288 287 287 287 288 288 288 288 288 288 288 287 287 287 287 287 287 287 287 287 287 288 288 288 288 288 289 289 289 289 289 289 289 289 289 289 290 290 290 290 290 290 290 290 290 290 290 290 290 290 290 290 290 290 290 290 291 291
289 289 289 289 289 288 288 288 288 288 288 288 288 288 288 288 288 288 288 288 288 288 288 288 288 288 288 288 287 287 287 287 288 288 288 288 288 288 287 287 287 287 287 287 287 287 287 287 287 287 288 288 288 288 288 289 289 289 289 289 289 289 289 289 289 289 290 290 290 290 290 290 290 290 290 290 290 290 290 290 290 290 291 291 291 291
288 288 288 288 288 288 288 288 288 288 288 288 288 288 288 288 288 288 288 288 288 288 288 288 288 288 288 288 288 287 287 287 288 288 288 288 288 288 287 287 287 287 287 287 287 287 286 287 287 287 287 288 288 288 288 289 289 289 289 289 289 289 289 289 289 289 289 289 290 290 290 290 290 290 290 290 290 290 290 290 290 291 291 291 291 291
288 288 288 288 288 288 288 288 288 288 288 287 287 287 287 288 288 288 288 288 288 288 288 288 288 288 288 288 288 287 287 287 288 288 288 288 288 288 288 287 287 287 287 287 287 287 287 287 287 287 287 287 287 287 288 288 289 289 289 289 289 289 289 289 289 289 289 289 289 289 290 290 290 290 290 290 290 290 290 290 291 291 291 291 291 291
287 287 287 287 287 287 287 287 287 287 287 287 287 287 287 287 287 288 288 288 288 288 288 288 288 288 288 288 288 287 287 287 288 288 288 288 288 288 288 288 287 287 287 287 287 287 287 287 287 287 287 287 288 288 287 288 288 288 289 289 289 289 289 289 289 289 289 289 290 290 290 290 290 290 290 290 290 290 290 291 291 291 291 291 291 291
288 288 287 287 287 287 287 287 287 287 287 286 286 287 287 287 287 287 288 288 288 288 288 288 288 288 288 287 287 287 287 288 288 288 288 288 288 288 288 288 287 287 287 287 287 287 287 287 287 287 287 287 288 288 288 288 288 288 288 288 289 289 289 289 289 289 290 290 290 290 290 290 290 290 290 290 290 291 291 291 291 291 291 291 291 291
288 288 288 287 287 287 287 287 287 287 287 287 287 287 287 287 287 287 287 287 287 287 288 288 288 288 288 288 287 287 287 287 288 288 288 288 288 288 288 288 287 287 287 287 287 287 287 287 287 287 288 288 288 288 288 288 288 288 288 288 288 288 289 289 289 289 289 290 290 290 290 290 290 290 290 290 290 291 291 291 291 291 291 291 291 291
287 287 287 287 287 287 287 287 287 287 287 287 287 287 287 287 287 287 287 287 287 287 287 287 288 288 288 288 287 287 287 287 288 288 288 288 288 288 288 288 288 287 287 287 287 287 287 287 287 287 288 288 288 288 288 288 288 288 288 288 288 288 288 288 289 289 289 289 290 290 290 290 290 290 290 290 290 290 291 291 291 291 291 291 291 291
287 287 287 287 287 287 288 287 287 288 288 288 287 287 287 287 287 287 287 287 287 287 287 287 287 287 287 287 287 287 287 287 287 288 288 288 288 288 288 288 288 287 287 287 287 287 287 287 287 287 287 288 288 288 288 288 288 288 288 288 288 288 288 288 288 289 289 289 289 289 290 290 290 290 290 290 290 290 290 291 291 291 291 291 291 291
287 287 286 287 287 287 288 288 288 288 288 288 288 288 287 287 287 287 287 287 287 287 287 287 287 287 287 287 287 287 287 287 287 287 288 288 288 288 288 288 288 287 287 287 287 287 287 287 287 287 287 287 287 288 288 288 288 288 288 288 288 288 288 288 288 288 289 289 289 289 289 290 290 290 290 290 290 290 290 290 290 290 291 291 291 291
286 286 286 287 287 288 288 288 288 288 288 288 288 288 287 287 287 287 287 287 287 287 287 287 287 287 287 287 287 287 287 287 287 287 288 288 288 288 288 288 288 287 287 287 287 287 287 287 287 287 287 287 287 288 288 288 288 288 288 288 288 288 288 288 288 288 288 289 289 289 289 289 289 290 290 290 290 290 290 290 290 290 290 290 291 291
286 286 287 287 287 288 288 288 288 288 288 288 288 287 287 287 287 287 287 287 287 287 287 287 287 287 287 287 287 287 287 287 287 287 287 287 288 288 288 287 287 287 287 287 287 287 287 287 287 287 286 286 287 287 288 288 288 288 288 287 287 288 288 288 288 288 288 288 289 289 289 289 289 290 290 290 290 290 290 290 290 290 290 290 291 291
286 287 287 287 288 288 288 288 288 288 288 288 288 287 287 287 287 287 287 287 287 287 286 287 287 287 287 287 287 286 287 287 287 287 287 287 287 287 287 287 287 287 287 287 287 287 287 287 287 287 286 287 287 288 288 288 288 288 288 287 287 287 288 288 288 287 288 288 288 288 289 289 289 290 290 290 290 290 290 290 290 290 290 290 290 290
287 287 287 287 287 288 288 288 288 288 288 288 288 287 287 287 287 287 287 287 287 287 287 287 287 287 287 287 287 286 286 286 287 287 287 287 287 287 287 287 287 287 287 287 287 287 287 287 287 287 287 287 287 288 288 288 288 288 288 287 287 287 287 287 287 287 287 288 288 288 288 289 289 289 289 289 289 289 290 290 290 290 290 290 290 290
287 287 287 287 287 288 288 288 288 288 288 288 288 287 287 287 287 287 287 287 287 287 287 287 287 287 287 287 286 286 286 286 286 287 287 287 287 287 287 287 287 287 287 287 287 287 287 287 287 287 287 287 287 288 288 288 288 287 287 287 287 287 287 287 287 287 287 287 288 288 288 288 289 289 289 289 289 289 289 289 289 289 290 290 290 290
287 287 287 287 287 288 288 288 288 288 288 288 288 287 287 287 287 288 288 287 287 287 287 287 287 287 287 287 286 286 286 286 286 286 287 287 287 287 287 287 287 287 287 287 287 287 287 287 287 287 287 287 287 288 288 288 287 287 287 287 287 287 287 287 287 287 287 287 287 288 288 288 288 289 289 289 289 289 289 289 289 289 289 289 289 290
287 287 287 287 288 288 288 288 288 289 289 288 288 287 287 287 288 288 288 288 287 287 287 287 288 287 287 287 286 286 286 286 286 286 286 286 287 287 287 287 286 286 286 286 286 287 287 287 287 287 287 287 287 287 288 287 287 287 287 287 287 287 287 287 287 287 287 287 287 288 288 288 288 288 289 289 289 289 289 289 289 289 289 289 289 289
287 287 287 287 288 288 288 288 288 289 289 289 288 288 288 288 288 288 288 288 288 288 288 288 287 287 287 287 286 286 286 286 286 286 285 286 286 286 286 286 286 286 286 286 286 286 286 287 287 287 287 287 287 287 287 287 287 287 287 287 287 287 287 287 287 287 287 287 287 288 288 288 288 288 288 289 289 289 289 289 289 289 289 289 289 289
287 287 287 287 287 288 288 288 288 288 289 289 288 288 288 288 288 288 288 288 288 288 288 287 287 287 287 287 287 286 286 286 286 285 285 285 285 286 286 286 286 286 286 286 286 286 286 286 287 287 288 288 287 287 287 287 287 287 287 287 286 287 287 287 287 287 287 287 287 287 288 288 288 288 288 289 289 289 289 289 289 289 289 289 289 289
Wind_Speed
29 30 31 32 30 28 26 25 25 25 24 23 23 23 24 24 23 22 20 19 18 18 18 17 16 15 14 14 14 13 13 12 11 10 9 8 8 9 9 10 11 12 13 14 15 17 18 18 19 19 19 20 20 19 19 19 19 18 18 18 18 19 20 21 21 22 22 23 23 23 24 24 24 24 24 23 22 21 20 19 19 19 18 17 16 14
30 32 33 31 28 26 25 25 25 25 24 24 24 24 25 24 22 21 20 19 18 17 17 16 15 14 14 14 14 14 13 12 11 10 9 9 8 9 9 10 10 11 12 13 14 15 16 16 17 17 17 17 17 17 17 16 16 16 16 16 17 17 18 19 20 20 21 21 22 23 23 23 23 23 23 22 21 20 20 19 19 19 18 18 16 14
32 33 31 29 27 25 25 26 26 26 25 25 25 25 24 22 21 20 20 19 18 17 16 15 14 14 14 14 14 14 13 12 11 10 10 9 9 9 10 10 11 11 12 12 12 13 13 13 14 14 14 14 14 14 15 15 15 15 16 16 17 17 18 19 19 20 21 21 22 22 22 23 23 23 22 22 21 20 19 19 19 18 18 17 16 14
33 31 29 27 26 26 27 27 27 27 26 26 25 24 22 21 20 20 21 20 18 17 15 14 14 14 14 15 14 14 13 12 11 10 10 10 10 10 11 11 12 12 12 12 12 12 12 12 12 12 12 13 13 13 14 14 15 16 16 17 17 18 19 19 20 20 21 21 22 22 22 22 22 22 21 21 20 20 19 19 18 18 17 16 15 14
31 29 28 27 28 28 29 28 28 27 26 25 23 22 21 20 20 21 21 20 18 16 15 14 14 14 15 15 15 14 13 12 11 11 11 11 11 11 12 12 12 13 13 12 12 12 12 12 12 12 12 13 13 14 14 15 16 16 17 18 18 19 20 20 20 21 21 21 21 22 22 22 21 21 21 20 19 19 18 18 17 17 16 15 14 14
29 28 28 28 29 30 30 29 27 26 25 23 21 20 20 20 21 21 20 19 18 16 15 15 15 15 15 15 14 14 13 12 11 11 11 11 12 12 13 13 13 13 13 13 13 13 13 13 13 13 13 13 14 15 15 16 16 17 18 18 19 19 20 20 20 21 21 21 21 21 21 21 20 20 19 19 18 18 17 17 16 16 15 15 14 14
28 29 29 29 30 29 29 27 26 24 22 21 20 20 20 21 21 20 19 18 17 16 15 15 15 15 15 15 14 13 13 12 12 12 12 12 13 13 13 14 14 14 14 14 14 14 14 14 14 14 14 15 15 15 16 16 17 17 18 18 19 19 19 20 20 20 20 20 20 20 20 19 19 19 18 18 17 17 17 16 16 15 15 14 14 14
29 30 30 29 28 27 26 25 23 21 20 19 19 20 21 21 20 19 18 17 17 16 15 15 15 15 15 15 14 13 13 12 12 12 13 13 13 14 14 15 15 15 15 15 15 15 15 15 15 15 15 15 16 16 16 17 17 17 18 18 18 19 19 19 19 19 19 19 19 19 19 18 18 17 17 17 17 17 16 16 16 15 15 15 14 14
29 29 28 27 25 24 22 21 20 19 19 19 19 20 20 20 20 19 18 17 16 16 15 15 15 15 15 14 14 13 13 13 13 13 13 14 14 15 15 15 15 15 15 15 15 15 15 15 16 16 16 16 16 17 17 17 17 17 18 18 18 18 18 18 18 18 18 18 18 18 17 17 17 17 17 17 17 16 16 16 16 15 15 15 15 15
27 26 24 23 21 20 20 19 19 19 19 19 20 20 20 19 19 18 17 16 16 16 15 15 15 15 14 14 13 13 13 13 14 14 14 15 15 15 16 16 16 16 16 16 16 16 16 16 16 16 16 16 17 17 17 17 17 17 17 17 17 17 18 18 18 18 17 17 17 17 17 17 17 16 17 17 17 17 16 16 16 15 15 15 15 15
22 21 20 19 19 19 19 19 19 19 20 20 20 20 20 19 19 17 17 16 16 15 15 15 15 15 14 13 13 14 14 14 14 15 15 15 16 16 16 16 16 16 16 16 16 16 16 16 16 16 16 16 17 17 17 17 17 17 17 17 17 17 17 17 17 17 17 17 17 17 17 16 16 16 16 16 16 16 16 16 15 15 15 14 15 15
19 18 17 18 18 19 19 19 20 20 20 20 20 19 19 19 18 17 16 16 16 15 15 15 15 14 14 13 14 14 14 15 15 15 16 16 16 15 15 15 15 15 15 15 15 15 15 15 15 15 16 16 16 16 16 16 16 16 16 16 16 16 16 16 16 17 17 17 17 16 16 16 16 16 16 16 16 16 15 15 14 14 14 14 14 14
17 17 17 18 19 20 20 20 20 21 21 20 20 19 18 17 17 15 15 15 15 15 15 15 15 14 14 14 14 15 15 15 16 16 16 16 15 15 15 15 15 15 15 15 15 15 15 15 15 15 15 15 16 16 16 16 16 16 16 16 16 16 16 16 16 16 16 16 16 16 16 16 15 15 15 15 15 14 14 14 13 13 12 12 13 13
18 18 19 20 20 21 20 20 20 20 20 19 18 16 16 16 15 15 14 15 15 15 15 15 15 15 15 15 15 16 16 16 16 16 16 15 15 15 14 14 14 14 14 14 14 14 14 14 14 15 15 15 15 16 16 16 16 16 16 16 16 16 16 16 16 15 15 15 15 15 14 14 14 14 14 13 13 13 12 12 12 11 11 11 11 11
19 20 20 21 21 20 20 19 19 19 18 17 16 15 16 16 15 15 14 15 15 15 15 15 15 15 16 16 16 16 16 16 16 16 15 15 15 14 14 13 13 14 13 13 13 14 14 14 14 14 15 15 15 15 15 15 15 15 15 15 15 15 15 15 15 14 14 14 13 13 13 12 12 12 12 12 11 11 11 10 10 10 9 10 10 10
20 20 20 20 19 19 18 18 18 17 17 16 16 16 15 15 15 15 14 14 15 15 15 15 15 16 17 17 17 17 16 16 16 15 15 14 14 14 13 13 13 13 13 13 13 13 13 13 14 14 14 15 15 15 15 15 15 15 14 14 14 14 14 14 13 13 12 12 12 11 11 11 11 10 10 10 10 9 9 9 8 8 8 8 8 9
20 19 19 18 18 17 17 17 17 17 16 16 16 16 15 15 14 14 14 15 15 16 16 16 16 16 17 17 17 17 16 15 15 15 15 14 14 14 13 13 13 13 13 12 12 13 13 13 14 14 14 14 14 14 14 14 14 13 13 13 13 13 12 12 12 11 11 11 10 10 10 10 9 9 9 9 8 8 7 7 7 7 7 7 7 7
18 18 17 17 17 17 17 17 17 16 16 15 15 15 15 14 14 15 15 15 16 16 16 17 17 17 17 16 16 16 15 15 15 16 15 15 15 14 14 14 14 13 13 12 12 13 13 13 14 14 14 14 14 14 13 13 13 12 12 12 12 12 11 11 10 10 10 10 9 9 9 9 8 8 8 8 7 7 6 6 6 6 6 6 6 6
17 17 16 16 16 16 16 16 16 15 14 14 14 14 14 15 15 15 16 16 16 17 17 17 17 17 17 16 15 15 15 15 15 16 16 15 15 15 14 14 14 14 13 13 13 13 13 13 14 13 13 13 13 12 12 12 12 11 11 11 11 11 10 10 10 9 9 9 9 9 8 8 8 8 7 7 6 6 6 6 6 6 6 6 6 6
16 16 16 15 15 16 15 15 14 13 13 13 13 14 14 15 16 16 16 17 17 17 17 17 17 17 16 16 15 15 15 15 16 16 16 16 15 15 15 15 15 15 14 13 13 13 13 13 13 13 12 12 12 11 11 11 11 11 11 10 10 10 10 9 9 9 9 9 8 8 8 8 7 7 7 6 6 6 6 6 6 6 6 6 6 6
16 15 15 15 15 14 14 13 13 12 12 13 14 14 15 16 16 17 17 17 17 17 17 16 16 16 16 15 15 15 15 15 15 16 16 16 15 15 15 15 15 15 14 13 13 13 13 13 12 12 11 11 11 11 10 11 10 10 10 10 10 9 9 9 9 8 8 8 8 8 8 8 7 7 7 6 6 6 6 6 6 7 7 7 7 7
15 15 15 15 14 14 13 13 13 13 14 14 15 15 15 16 16 16 16 16 16 16 15 15 15 16 16 15 15 15 14 15 15 16 16 15 15 14 14 15 15 14 14 13 13 12 12 12 12 11 11 10 10 10 10 10 10 10 10 10 9 9 9 8 8 8 9 9 8 8 8 8 8 7 7 7 7 7 7 7 7 7 7 7 7 7
14 14 14 14 14 14 14 14 14 14 15 15 15 16 16 16 16 15 15 15 15 15 15 16 16 17 16 15 15 15 14 14 14 15 15 15 14 13 14 14 14 14 13 12 12 12 12 11 11 10 10 10 10 10 10 10 10 10 10 9 9 9 9 9 9 9 9 9 9 8 8 8 8 8 7 7 7 7 7 7 7 8 8 8 8 8
14 14 14 14 14 14 15 15 15 16 16 16 16 17 17 17 16 16 16 16 16 16 16 16 16 16 16 15 15 14 14 14 14 14 14 14 13 13 13 13 13 12 12 12 11 11 11 11 10 10 9 9 9 10 10 10 10 10 9 9 9 9 9 9 9 9 9 9 9 9 9 8 8 8 8 8 8 8 8 8 8 8 8 8 8 8
14 14 15 15 15 16 16 16 17 17 17 17 17 17 17 17 17 17 17 17 17 17 17 16 16 16 16 15 15 14 14 13 13 13 14 13 13 12 12 12 12 11 11 11 11 10 10 10 10 9 9 9 9 10 10 10 10 9 9 9 9 9 9 9 9 9 9 9 9 9 9 9 9 9 8 8 8 8 8 9 9 9 9 9 9 9
14 15 15 16 16 17 17 17 17 18 18 17 17 17 16 16 16 16 16 17 16 16 16 16 16 16 15 15 15 14 14 13 13 13 13 13 12 12 12 11 11 11 10 10 10 10 10 10 9 9 9 9 9 9 10 10 10 10 10 10 10 10 10 10 10 10 10 10 10 9 9 9 9 9 9 9 9 9 9 9 9 9 9 10 10 10
15 16 16 17 17 18 18 18 18 18 17 17 17 16 16 16 16 16 16 16 16 16 16 16 16 16 15 15 15 15 14 14 13 13 12 12 12 11 11 11 10 10 10 10 10 10 10 9 9 9 9 9 9 9 9 10 10 10 10 10 10 10 11 10 10 10 10 10 10 10 10 10 10 10 10 10 10 10 10 10 10 10 10 10 10 10
16 17 17 17 18 18 18 18 17 17 17 16 16 16 15 15 15 16 16 16 15 15 16 16 16 15 15 15 15 15 14 13 13 12 12 12 11 11 10 10 10 10 10 10 10 10 10 9 9 9 9 9 9 9 9 10 10 10 10 11 11 11 11 11 11 11 11 11 11 11 11 11 11 11 11 11 11 11 11 11 11 11 11 11 11 11
17 17 18 18 18 18 17 17 16 16 16 15 15 15 15 15 15 16 16 15 15 15 15 15 15 14 14 14 14 14 14 13 12 12 11 11 11 10 10 10 10 10 10 10 10 10 10 9 9 9 9 9 9 9 10 10 10 10 11 11 11 11 11 11 11 11 12 12 12 12 12 12 12 12 12 12 12 11 12 12 12 12 12 12 11 11
18 18 17 17 17 16 16 16 15 15 15 15 14 14 14 14 15 15 15 15 15 15 15 15 14 14 14 14 14 13 13 12 12 12 11 11 11 10 10 10 10 10 10 9 9 10 10 10 9 9 9 9 10 10 10 10 10 11 11 11 11 12 12 12 12 12 12 12 12 12 12 12 12 12 12 12 12 12 12 12 13 13 12 12 12 12
17 16 16 15 15 15 15 14 14 14 14 14 13 13 14 14 15 15 15 15 15 15 15 14 14 14 14 14 13 13 12 12 12 12 11 11 11 11 11 11 10 10 10 10 9 9 9 9 9 9 10 10 10 10 10 11 11 11 11 11 12 12 12 12 13 13 13 13 13 13 13 13 13 13 13 13 13 13 13 13 13 13 13 13 12 12
16 15 14 14 14 14 14 14 14 14 13 13 13 13 13 14 14 15 15 15 14 14 14 14 14 14 14 13 13 12 11 11 12 12 12 12 12 12 11 11 11 10 10 10 10 10 8 9 9 9 10 10 10 11 11 11 11 11 11 11 12 13 13 13 13 13 14 14 14 14 14 14 14 14 14 14 14 14 14 14 14 14 13 13 13 13
15 14 14 13 13 13 13 13 13 13 13 12 12 12 13 14 14 15 15 14 14 14 14 14 14 14 13 13 12 12 12 12 12 12 12 12 12 12 12 11 11 11 11 11 11 11 10 10 10 10 10 10 11 11 12 12 11 11 11 12 12 13 13 13 14 14 14 14 14 14 15 15 15 15 15 14 14 14 14 14 14 14 14 14 14 14
14 13 13 12 12 12 12 12 12 12 12 12 12 12 12 13 14 14 14 14 14 13 13 13 13 13 13 12 12 12 12 13 13 13 12 12 12 12 12 11 11 11 11 11 11 12 12 12 11 11 11 11 12 12 12 12 12 12 12 12 13 13 14 14 14 14 15 15 15 15 15 15 15 15 15 15 15 15 15 15 15 15 15 15 15 15
13 13 12 12 12 12 12 12 12 12 11 11 11 11 12 12 13 13 13 13 13 13 13 13 13 13 13 12 12 12 12 13 14 13 13 13 13 12 12 11 11 11 11 12 12 12 12 12 12 12 12 12 12 12 13 13 12 12 12 13 13 14 14 14 15 15 15 15 16 16 16 16 16 16 16 16 16 16 16 16 16 16 16 16 16 16
12 12 11 11 11 11 11 11 11 11 11 11 11 11 12 12 12 12 13 13 13 13 12 12 12 12 12 12 12 12 12 14 14 13 13 12 12 12 12 12 11 11 12 12 13 13 12 12 13 13 12 12 12 12 13 13 13 13 13 13 14 14 15 15 15 16 16 16 16 17 17 17 17 17 17 17 17 17 17 17 17 17 17 17 17 18
12 11 11 11 11 11 11 11 11 11 11 11 12 12 12 12 12 12 13 13 12 12 12 12 12 12 12 12 12 12 13 14 14 13 12 12 12 12 12 12 12 12 12 13 13 13 13 13 13 13 13 12 12 12 12 13 13 13 13 14 14 15 15 15 16 16 17 17 17 18 18 18 18 18 18 18 18 18 18 18 18 18 18 18 18 19
11 11 11 11 11 11 11 11 11 11 11 12 12 12 12 12 12 12 12 12 12 12 12 12 12 12 12 12 12 13 14 14 13 13 12 12 12 12 12 12 12 12 13 13 14 14 14 14 14 13 13 13 13 13 13 13 13 14 14 14 14 15 15 16 16 17 17 18 18 18 18 18 19 19 19 19 19 19 19 19 19 19 19 19 19 19
11 11 11 11 11 11 11 11 11 12 12 12 12 12 12 12 12 12 12 12 12 12 12 12 12 12 12 12 12 13 13 13 13 13 13 12 12 12 12 12 12 12 13 14 14 15 15 15 14 14 14 13 13 13 14 14 14 14 14 15 15 15 16 16 17 18 18 18 19 19 19 19 19 19 20 20 20 20 20 19 20 20 20 20 20 20
11 11 11 11 11 11 11 11 11 12 12 12 12 12 12 12 12 12 12 12 12 12 12 12 12 12 12 12 12 13 13 13 13 13 13 13 12 12 12 12 12 13 13 14 15 15 15 15 15 15 14 14 13 13 14 14 14 15 15 15 15 16 16 17 18 18 19 19 19 19 19 20 20 20 20 21 21 21 21 21 21 21 21 21 21 21
11 11 10 11 11 11 11 11 11 11 11 11 11 11 11 11 12 12 12 12 12 13 13 13 13 13 13 12 12 13 13 13 14 14 14 13 13 13 13 13 13 13 14 15 15 16 15 15 15 15 14 14 14 14 14 14 14 14 15 16 16 16 16 17 18 18 19 19 19 19 20 20 21 21 21 22 22 22 22 22 22 22 22 22 22 22
11 10 10 11 11 11 11 10 10 10 11 11 11 11 11 12 12 12 13 13 13 13 13 13 13 13 13 13 13 13 13 14 14 14 14 14 14 14 14 14 14 14 15 15 16 16 16 16 15 15 15 15 15 15 15 14 14 14 15 15 16 16 17 17 18 19 19 19 20 20 21 21 22 22 23 23 23 23 23 22 22 23 23 23 23 23
11 11 11 11 12 11 11 10 10 10 10 11 11 11 12 12 12 13 13 13 13 13 13 14 14 14 13 13 13 13 13 14 14 14 14 14 14 14 14 14 15 15 15 16 16 16 16 16 16 15 15 15 16 17 16 15 14 14 14 15 15 16 16 16 17 18 19 19 20 20 21 22 23 23 23 23 23 23 23 23 23 23 23 23 24 24
11 12 12 12 12 12 11 11 11 11 11 12 12 12 12 13 13 13 13 13 13 13 14 14 14 14 14 13 13 13 14 14 15 15 15 15 15 15 15 15 15 15 16 16 16 16 16 16 16 15 16 17 17 18 17 16 14 13 13 14 15 16 16 16 16 17 18 19 20 21 21 22 23 24 24 24 23 23 23 24 24 24 24 24 24 24
12 12 13 13 13 12 12 12 12 12 12 13 13 13 13 13 13 13 13 13 13 13 14 14 14 14 14 13 13 13 14 15 15 15 15 16 16 16 16 16 16 16 16 17 17 17 17 17 16 16 17 18 19 19 18 16 15 14 13 13 14 16 17 17 17 17 18 19 20 21 22 23 24 24 24 23 23 23 23 24 24 24 24 24 24 25
12 12 13 13 13 13 13 13 13 13 13 13 13 13 13 14 13 13 13 13 13 14 14 14 14 14 14 13 13 14 15 15 16 16 16 16 16 16 16 16 16 17 17 17 17 17 17 18 18 18 18 19 20 19 18 17 16 14 14 14 15 16 17 17 17 18 18 19 20 21 23 24 24 24 24 23 23 23 23 24 24 24 24 24 25 25
13 13 13 13 13 13 13 13 13 13 13 13 13 13 14 14 14 14 14 14 14 14 14 15 15 14 14 13 13 14 15 16 16 17 17 17 17 17 17 17 17 17 17 18 18 18 18 18 19 19 19 20 20 20 18 17 16 15 15 15 16 17 17 17 17 18 19 20 21 22 23 24 24 24 24 24 24 24 24 24 24 24 24 24 24 25
13 13 13 13 14 14 14 14 14 14 13 13 13 13 14 14 14 14 14 14 14 15 15 15 15 15 14 14 14 14 15 16 17 17 17 17 17 17 17 17 17 18 18 18 19 19 19 19 20 20 20 20 21 20 19 17 16 16 16 16 17 18 18 18 18 18 19 20 21 22 23 24 24 24 25 25 25 24 24 24 24 24 24 24 24 24
13 14 14 14 14 14 14 14 14 14 13 13 13 13 14 15 15 15 15 15 15 15 15 15 15 15 15 14 14 15 15 16 17 17 18 18 17 17 17 17 18 18 18 19 19 20 20 20 21 21 20 20 20 20 19 18 17 16 17 17 18 18 18 18 18 18 19 20 22 22 23 23 24 24 24 25 25 24 24 24 23 23 24 24 24 24
14 14 14 14 15 14 14 14 14 14 14 13 13 14 14 15 16 16 15 16 16 16 16 16 16 16 15 15 15 15 16 16 17 17 18 18 18 18 18 18 18 18 19 19 20 20 20 21 21 21 21 20 20 20 20 19 18 18 18 18 19 19 19 18 18 19 20 20 21 22 23 23 23 24 24 24 24 24 24 24 23 23 23 23 23 23
15 15 15 15 15 15 15 14 14 14 14 14 14 14 15 16 16 16 16 16 16 16 16 16 17 17 16 16 15 16 16 17 17 18 18 18 19 19 19 19 19 19 19 20 20 21 21 22 22 22 21 20 19 19 19 20 19 19 19 19 18 18 18 18 18 19 20 21 21 22 22 23 23 23 23 23 24 24 24 23 23 23 22 23 23 23
Wind_Direction
262 260 258 256 253 252 253 255 255 254 255 257 260 263 265 266 267 268 271 276 281 283 282 278 275 271 267 262 257 253 250 249 249 249 249 247 245 246 248 250 252 253 253 252 251 251 250 251 251 251 252 254 255 256 257 258 259 259 259 258 258 257 257 259 261 264 267 270 272 275 277 279 281 281 283 284 285 286 286 286 286 287 287 287 286 285
258 256 254 253 253 254 254 254 253 252 253 256 259 262 264 265 266 268 272 276 279 279 277 273 270 265 260 255 252 249 247 248 249 251 253 252 251 251 252 255 256 257 256 254 253 251 250 250 250 250 251 253 254 255 256 257 258 259 259 259 259 259 260 260 262 264 266 269 272 274 276 278 279 280 281 283 283 283 283 283 283 284 285 285 284 283
256 254 254 256 257 257 254 252 252 251 252 254 258 260 262 264 266 269 273 276 277 275 271 267 263 259 254 250 248 247 246 248 251 254 256 257 258 259 260 261 262 262 260 258 255 253 250 249 248 248 249 250 251 252 253 254 256 257 258 259 260 261 262 262 263 265 267 269 271 273 274 276 277 278 279 280 280 280 280 280 280 281 281 281 281 279
255 256 257 260 259 257 253 250 249 250 251 253 256 260 263 265 268 271 274 275 275 272 267 262 257 253 249 247 246 246 246 249 252 255 258 261 263 265 267 268 268 268 266 263 260 256 253 250 247 246 246 246 248 249 251 252 254 255 257 258 259 261 262 263 264 266 267 269 270 271 272 274 275 276 276 277 277 276 276 276 276 276 276 276 276 274
257 259 261 261 258 255 252 250 249 250 252 254 257 261 264 267 269 271 273 274 274 271 265 260 254 249 246 245 245 246 248 251 254 258 261 264 267 270 271 273 273 273 271 268 264 261 257 253 251 248 248 247 248 249 250 252 253 255 256 258 260 261 262 264 265 266 267 268 269 270 271 273 273 274 274 274 274 274 274 273 272 271 271 270 270 270
260 262 262 259 256 253 251 251 252 253 254 255 258 263 266 267 269 270 272 272 271 268 264 258 252 247 245 244 245 247 250 253 257 260 264 267 270 272 274 275 275 274 272 270 267 264 262 259 257 255 254 253 252 253 253 254 255 257 258 259 261 262 263 264 265 266 267 268 269 270 271 272 272 272 273 273 273 272 272 271 270 269 267 266 266 265
262 261 260 257 255 253 252 253 254 255 255 256 260 264 266 267 268 269 269 269 267 264 261 256 251 247 244 244 246 249 253 257 260 264 267 270 272 274 275 275 274 273 271 270 268 266 264 263 261 260 260 259 259 258 258 259 259 260 260 261 262 263 264 265 265 266 267 268 268 269 270 271 272 272 272 272 272 271 271 270 269 268 266 265 264 263
259 259 258 256 254 253 253 254 255 255 256 258 261 263 265 266 267 267 266 265 263 260 256 252 248 245 244 245 248 252 256 260 264 267 270 272 274 275 275 274 273 271 270 268 266 265 264 263 262 262 262 262 262 262 262 262 262 262 262 262 263 263 264 264 265 266 266 267 268 269 270 271 271 272 272 272 271 271 270 270 269 268 267 266 264 262
256 257 257 256 255 254 254 255 256 257 258 259 260 261 263 264 264 264 263 261 259 256 252 248 246 244 245 247 251 255 259 264 267 270 272 274 274 275 274 273 272 270 268 266 264 263 262 261 261 261 261 262 262 263 263 263 262 262 262 262 263 263 264 264 265 266 267 268 269 270 271 271 271 271 271 271 271 271 271 271 270 269 268 266 264 262
253 255 256 256 256 256 256 256 257 259 259 259 259 259 260 261 262 262 260 258 255 253 250 246 245 245 247 250 254 258 262 266 269 271 273 274 274 274 273 272 271 269 267 265 263 262 261 260 260 260 260 261 262 262 262 263 263 263 263 263 263 264 264 265 266 267 268 269 270 271 271 272 271 271 271 271 271 271 271 271 270 269 268 266 264 262
249 251 252 254 255 257 257 257 258 259 259 258 258 258 259 259 260 260 259 256 253 251 248 245 245 247 250 253 257 261 265 268 271 273 273 274 274 273 272 271 270 268 267 265 264 262 261 261 260 260 261 261 262 262 263 263 264 264 264 264 265 265 266 267 268 269 270 271 272 272 273 272 272 272 271 271 271 271 271 270 269 267 266 264 263 261
246 248 251 253 255 256 257 257 257 258 257 256 256 258 259 260 260 259 257 254 251 249 246 246 246 248 251 255 259 263 267 269 271 272 273 272 272 271 270 269 269 267 266 265 265 264 263 263 263 263 263 263 263 264 264 264 265 265 265 266 266 267 268 269 270 271 272 272 273 273 273 273 273 272 271 271 270 270 269 269 267 266 264 262 260 260
246 249 252 255 256 256 257 256 256 256 256 257 259 261 262 262 261 259 254 250 248 246 245 247 249 252 254 258 261 264 267 269 270 271 270 269 268 268 267 266 265 265 264 264 264 263 263 263 263 263 263 264 264 264 265 265 266 266 267 267 268 269 269 270 271 271 272 273 273 273 273 273 272 271 270 270 269 268 267 266 265 264 262 260 258 258
248 251 253 254 255 255 255 254 254 255 257 259 261 262 261 260 258 254 248 245 244 244 245 248 252 256 259 261 264 267 268 269 270 270 269 268 267 266 265 264 263 262 262 261 261 261 262 262 262 262 263 263 263 264 264 265 266 267 268 268 269 270 270 271 272 272 273 273 273 272 272 271 270 269 268 267 266 265 264 263 262 261 259 257 256 255
252 254 255 255 255 254 254 254 255 256 259 260 259 257 255 253 251 247 244 242 243 245 247 251 256 260 263 264 266 269 270 270 269 269 268 268 268 267 265 264 263 262 261 261 261 261 261 261 261 261 262 262 263 263 264 266 267 267 268 269 269 270 271 271 272 272 272 272 272 271 270 269 268 267 265 264 263 261 260 260 259 257 256 254 252 250
254 255 255 255 255 255 254 255 256 257 257 257 255 252 250 248 246 244 243 243 246 250 252 255 259 262 265 266 268 269 270 270 270 269 269 269 269 268 266 265 264 263 263 262 262 262 263 263 262 263 263 264 264 265 266 266 267 268 268 268 269 270 270 271 272 272 272 271 271 270 269 267 266 264 262 260 258 257 256 256 255 253 252 250 248 244
253 253 253 254 254 254 254 255 255 255 255 253 251 249 248 246 245 244 244 246 250 253 257 260 262 263 265 267 268 269 270 270 270 270 270 270 269 268 267 265 264 263 263 262 262 263 264 264 264 264 264 265 266 266 267 267 267 267 267 268 268 269 270 270 271 271 271 270 270 269 267 265 263 260 257 255 254 252 251 250 248 246 245 243 240 237
250 251 252 253 254 254 254 254 254 253 252 250 248 246 245 244 244 244 246 249 252 256 260 264 265 267 268 268 267 268 270 269 268 269 269 269 268 268 267 265 264 264 263 262 263 263 264 264 264 264 265 265 265 266 266 266 266 266 266 266 267 268 269 269 270 270 270 269 268 267 265 262 259 256 253 250 248 246 245 242 239 236 235 233 230 226
248 250 251 253 253 253 253 253 253 252 250 248 246 245 244 244 245 247 249 253 256 259 262 264 266 268 269 270 269 268 267 266 265 266 266 266 267 266 266 265 265 264 264 264 265 264 264 264 264 264 264 264 264 264 264 265 265 265 264 265 266 266 267 268 268 268 268 267 265 264 261 258 255 251 248 245 243 240 237 234 230 226 224 221 219 215
246 248 249 250 250 251 251 250 249 248 247 245 244 244 245 247 249 252 254 257 259 262 263 264 266 267 268 269 268 266 263 262 262 262 263 263 264 265 265 265 265 266 266 266 266 265 264 264 263 263 262 262 262 263 263 263 263 263 263 263 264 265 266 266 266 265 264 263 261 259 257 254 250 247 244 241 238 235 231 227 222 219 216 214 212 208
245 246 247 247 246 246 246 246 245 243 242 242 243 245 247 250 253 256 258 259 261 262 264 264 264 265 265 266 265 263 261 259 259 260 261 261 261 261 262 263 264 265 266 266 265 264 263 262 262 261 261 261 261 261 261 261 261 261 261 262 263 263 263 263 262 261 259 257 256 254 251 249 246 243 240 237 234 230 227 223 220 216 214 212 209 208
245 245 246 245 243 242 241 241 240 240 240 242 244 247 250 252 255 257 259 260 261 262 263 263 261 262 263 263 262 260 259 257 257 258 259 259 258 257 258 260 261 262 263 263 262 261 260 260 260 259 260 260 260 260 260 259 259 259 260 260 260 260 260 258 257 255 253 252 250 248 246 244 242 239 237 234 231 228 226 222 219 216 214 213 212 211
243 243 244 243 242 240 240 240 241 242 243 245 247 249 252 253 254 256 258 258 258 259 259 259 259 260 261 260 259 257 256 255 255 256 257 258 257 255 254 255 257 258 259 258 258 258 258 258 258 258 259 259 258 258 257 257 257 258 258 258 257 256 255 253 252 250 248 247 245 243 242 240 239 237 235 233 230 228 225 223 221 219 218 217 216 216
241 242 243 243 243 243 243 244 245 246 248 249 250 250 251 252 252 252 252 253 254 254 255 256 257 257 257 257 256 255 254 254 254 254 255 256 255 254 251 251 252 253 253 254 254 255 256 257 258 258 257 256 255 255 255 256 256 256 256 256 254 252 251 249 247 245 244 242 241 240 238 237 236 235 234 232 230 229 227 226 224 223 222 222 221 221
242 244 246 247 248 249 249 250 250 251 252 252 253 253 253 253 252 252 252 252 252 252 252 253 252 252 253 253 253 252 252 252 252 252 253 254 253 251 249 248 248 249 249 251 252 253 255 257 257 257 256 254 253 253 254 254 255 254 254 253 251 249 247 245 243 241 240 239 238 237 236 235 235 234 234 233 231 230 229 228 228 227 227 226 226 226
248 249 251 252 254 255 255 256 256 256 256 256 255 255 254 254 253 252 251 250 249 249 249 249 249 249 250 251 251 251 250 250 249 249 250 251 250 248 246 246 246 246 247 250 252 253 254 255 256 255 253 251 251 251 252 252 252 252 251 250 248 247 245 243 241 239 238 237 236 235 235 234 234 233 233 233 232 231 231 230 230 230 230 230 230 230
254 256 257 258 258 259 260 260 260 259 259 259 258 256 255 253 252 251 249 249 248 248 248 247 247 248 249 249 249 249 249 248 247 247 247 248 247 244 243 243 244 244 246 249 251 252 252 252 253 252 250 249 248 249 249 249 249 249 249 248 247 246 244 242 240 238 237 236 235 234 234 233 233 233 233 233 233 233 233 232 233 233 233 233 233 234
260 260 260 260 261 261 261 261 261 261 260 259 258 257 255 252 250 250 249 249 249 248 247 247 247 246 246 246 247 247 247 246 245 244 243 244 243 241 240 241 242 243 244 247 250 252 251 250 249 249 247 246 246 246 246 246 246 246 246 246 245 245 243 242 240 238 237 235 235 234 234 233 233 233 234 234 234 234 234 234 235 235 236 236 236 236
262 262 262 261 261 262 262 261 261 260 259 258 257 256 254 251 250 249 249 249 248 247 246 246 246 245 244 244 244 244 244 243 242 240 240 241 240 239 238 239 240 241 242 244 248 251 250 248 247 245 245 244 243 243 243 243 244 244 244 244 244 244 243 242 240 239 238 236 236 235 235 235 234 234 234 234 234 235 235 236 237 238 238 238 239 239
263 262 262 262 261 261 260 259 258 257 256 255 254 254 253 251 249 248 248 248 247 246 246 246 245 244 243 242 241 241 240 239 238 237 237 238 238 237 237 237 238 239 239 241 244 247 248 247 244 242 241 241 240 241 241 242 241 242 242 242 242 242 242 241 240 239 238 238 237 236 236 236 236 236 236 236 236 237 237 238 239 240 241 241 241 242
261 261 260 260 259 258 257 256 255 255 254 253 251 250 250 249 248 248 248 247 246 246 246 246 245 243 241 240 240 239 237 235 235 236 236 237 237 237 236 236 237 238 239 239 240 243 246 245 242 239 238 238 239 239 240 240 240 241 241 241 242 241 241 240 240 239 239 238 238 238 237 237 237 237 238 238 238 238 239 240 241 243 243 244 245 246
258 258 257 257 256 255 255 255 254 254 254 252 249 246 246 246 247 247 247 247 246 246 245 245 244 242 240 239 238 237 234 232 233 234 234 235 237 237 237 237 238 239 240 239 239 239 239 240 239 237 236 235 237 239 241 241 241 241 241 241 241 241 240 240 240 240 240 240 239 239 239 239 239 239 239 240 240 240 241 242 244 245 246 247 248 249
256 255 254 254 254 254 254 254 254 254 253 252 249 245 243 243 244 246 247 247 246 245 244 244 243 241 240 238 237 235 232 231 232 234 235 236 237 239 240 239 240 240 241 241 241 240 238 236 235 234 233 234 237 240 242 243 242 241 241 241 242 241 241 240 240 240 241 241 241 241 241 241 241 241 241 241 241 242 243 244 246 247 249 250 251 252
254 254 253 253 253 253 253 253 253 252 252 251 248 245 242 241 242 244 246 246 246 245 244 243 242 241 239 237 235 233 231 232 235 237 237 238 239 240 241 241 240 241 241 241 241 241 239 238 236 234 232 235 238 241 244 245 244 243 242 242 242 242 241 240 240 240 241 242 242 242 242 242 242 242 242 242 243 243 244 246 247 249 251 252 253 255
253 254 254 253 252 252 252 252 251 250 249 248 246 245 243 242 242 243 245 246 246 245 245 243 242 240 239 237 234 232 230 234 237 239 239 240 241 242 241 241 241 241 241 241 241 241 240 239 238 236 234 235 238 243 246 247 245 244 243 242 242 241 241 240 239 239 239 240 241 241 242 242 242 243 243 243 244 245 245 247 248 250 252 253 255 256
253 253 252 252 251 250 250 250 249 247 246 245 245 244 244 243 243 244 245 246 246 246 245 244 243 241 239 237 235 232 231 236 240 241 242 242 243 244 243 242 241 242 242 243 243 243 241 240 240 239 237 235 235 239 245 247 247 244 243 242 242 241 241 239 238 237 237 238 239 240 241 241 242 243 243 244 244 245 246 247 248 250 252 254 255 257
248 248 247 247 246 245 245 244 244 242 241 241 242 243 243 243 244 244 245 246 246 246 245 244 243 241 239 237 235 234 235 239 242 244 245 246 246 246 245 243 243 243 244 245 246 246 245 244 243 242 241 237 232 231 236 245 247 246 244 243 242 241 241 240 239 237 236 236 237 238 239 240 241 242 243 244 244 245 246 247 249 250 252 254 255 257
242 241 240 239 239 238 237 236 235 234 234 235 238 240 242 243 244 245 246 247 247 246 246 244 243 241 239 237 236 236 237 241 243 245 246 247 248 248 248 246 244 244 244 246 248 249 249 248 247 245 242 239 235 232 233 238 242 244 245 245 244 242 242 241 240 239 237 237 237 237 238 239 240 242 243 244 245 246 247 248 249 251 252 254 255 257
237 236 234 234 233 232 231 229 228 229 231 233 236 239 241 244 246 247 248 248 248 248 248 247 245 243 241 239 237 237 238 240 243 244 245 246 247 247 248 247 245 244 245 246 248 249 250 250 250 248 246 243 239 236 235 236 238 241 244 246 247 246 244 244 243 241 240 239 238 238 238 239 241 242 243 245 246 247 248 249 250 251 253 255 257 259
237 234 233 232 232 230 229 228 229 230 232 233 236 238 241 243 245 247 249 249 250 250 250 249 248 246 244 242 240 239 239 241 242 243 243 244 244 244 245 246 245 244 244 246 247 249 250 251 251 251 250 247 244 240 237 236 237 239 241 243 244 246 247 246 244 243 242 241 240 240 240 241 242 243 244 246 247 248 249 250 251 253 254 256 258 260
240 238 236 235 234 234 233 232 232 233 234 235 237 238 240 242 243 245 246 248 249 249 250 250 249 248 246 244 243 242 241 242 242 243 243 243 242 242 242 244 244 245 245 246 247 248 251 252 252 253 252 251 249 245 241 239 238 238 240 239 239 241 244 246 246 245 244 243 242 241 241 242 243 244 245 246 248 249 250 251 253 254 255 257 258 259
245 243 240 240 240 240 239 238 237 237 237 238 239 240 241 242 243 244 244 244 245 245 247 247 247 247 247 245 244 243 242 243 243 243 244 244 243 242 242 243 244 245 246 246 248 249 251 253 254 255 255 255 254 252 248 243 240 240 240 240 240 239 240 244 246 247 245 244 243 242 242 242 243 244 245 246 248 249 251 252 253 255 256 257 258 259
247 245 244 244 244 244 244 243 242 241 241 241 241 242 242 243 243 244 244 243 243 243 244 245 246 246 246 245 245 245 244 243 243 244 244 244 244 244 244 244 244 245 247 248 249 251 252 253 255 256 258 258 258 257 254 248 244 242 241 241 241 240 238 240 243 245 245 244 244 243 243 243 243 244 245 247 248 250 251 253 254 255 256 257 258 259
246 245 245 245 246 247 247 246 245 243 242 242 241 241 242 243 243 244 244 243 243 243 243 245 246 246 246 244 244 245 246 245 244 244 244 245 245 245 245 245 245 246 248 250 252 253 254 254 255 256 258 259 260 260 259 256 251 245 243 241 241 241 239 238 239 241 242 244 244 245 245 245 245 245 246 247 248 250 251 252 254 255 256 257 258 259
244 244 244 246 247 248 248 247 245 243 242 241 241 241 242 243 244 244 244 244 244 243 244 245 246 246 244 243 242 243 245 246 245 244 244 245 245 246 246 247 247 248 249 251 253 255 256 257 257 256 257 258 260 262 263 262 259 254 249 246 244 243 241 239 239 239 240 242 243 245 246 246 247 247 248 248 249 250 251 252 254 255 256 257 258 259
243 243 244 245 246 247 246 245 244 243 242 241 240 241 242 243 245 245 245 245 245 245 245 246 246 246 245 242 240 240 243 245 246 245 245 245 245 246 247 248 249 250 251 252 254 255 257 258 258 258 258 259 261 263 265 267 266 262 257 253 250 247 244 243 241 240 240 240 242 243 246 247 248 248 249 249 250 250 251 252 253 254 255 256 257 258
244 243 244 244 245 246 246 245 244 243 242 241 240 240 242 244 245 245 245 245 246 246 246 247 247 247 245 242 239 239 241 244 246 247 247 246 246 246 247 249 250 251 253 254 255 256 257 259 259 260 261 262 264 266 268 269 269 267 264 260 256 252 249 247 245 243 242 242 241 242 245 246 247 248 249 250 250 250 251 252 252 253 254 255 256 258
246 245 245 246 246 246 246 246 245 244 244 242 241 240 241 243 245 245 245 245 245 246 247 247 247 246 245 242 240 239 240 243 246 248 249 249 249 248 248 249 250 252 253 254 256 257 259 260 261 262 263 265 267 269 270 270 270 269 267 263 260 256 253 250 248 247 245 244 243 243 244 245 246 248 248 249 249 250 250 250 251 252 253 254 255 257
249 249 248 248 248 248 248 248 247 247 246 244 242 241 242 244 245 245 245 245 245 245 246 247 246 246 245 243 240 239 240 241 244 247 249 251 252 251 250 250 250 252 253 255 256 258 259 260 261 262 264 266 268 270 272 271 270 269 267 264 262 260 257 254 251 249 248 246 245 245 245 245 246 247 247 248 249 249 248 248 249 250 251 253 254 256
252 251 250 250 250 250 250 250 249 249 247 246 243 242 242 244 245 246 246 245 245 245 246 246 246 246 245 243 240 239 239 240 242 244 246 249 251 252 252 251 252 252 254 255 257 259 260 261 263 264 265 266 268 270 271 272 271 268 266 264 263 261 259 256 253 250 249 248 247 247 246 246 246 247 247 248 249 248 248 247 247 248 250 252 253 255
252 252 251 251 250 250 250 250 250 249 248 247 245 244 244 244 246 247 247 247 247 246 246 246 246 246 245 243 241 239 239 240 240 241 242 245 248 250 251 251 252 253 255 256 257 259 261 262 264 265 266 267 268 270 270 271 270 268 266 263 262 260 258 256 253 251 249 248 248 248 248 248 248 248 249 249 250 250 250 249 248 249 250 252 253 254